Всё
Warkworth Airport (Warkworth, New South Wales) YWKW Погода
There is no TAF data available at YWKW or any nearby airports.
There is no METAR data available at YWKW. Showing METAR data for YCNK (25 mi ЮВ).
Недавняя история METAR для CES (для YWKW данные отсутствуют)
| Date | Time (AEST) | Flight Rules | Wind Dir. | Speed | Type | Height AGL (ft) | Visibility | Temp (°C) | Temp (°F) | Dew Point (°C) | Dew Point (°F) | Rel. Humid. | Pressure | Density Altitude | Remarks |
|---|---|---|---|---|---|---|---|---|---|---|---|---|---|---|---|
| 05-май | 15:00 | n/a | 340° | 8 kt | Missing | 22° | 71° | 10° | 50° | 46% | 1016 mb | 969 ft | |||
| 05-май | 14:00 | n/a | 340° | 9 kt | Missing | 22° | 71° | 9° | 48° | 43% | 1017 mb | 939 ft | |||
| 05-май | 13:00 | n/a | 340° | 8 kt | Missing | 22° | 71° | 10° | 50° | 46% | 1017 mb | 939 ft | |||
| 05-май | 12:00 | n/a | 310° | 6 kt | Missing | 21° | 69° | 8° | 46° | 43% | 1018 mb | 789 ft | |||
| 05-май | 11:00 | n/a | 290° | 6 kt | Missing | 19° | 66° | 9° | 48° | 52% | 1019 mb | 520 ft | |||
| 05-май | 10:00 | n/a | 230° | 7 kt | Missing | 18° | 64° | 8° | 46° | 52% | 1019 mb | 400 ft | |||
| 05-май | 09:00 | n/a | 180° | 5 kt | Missing | 17° | 62° | 10° | 50° | 63% | 1019 mb | 280 ft | |||
| 05-май | 08:00 | n/a | 250° | 7 kt | Missing | 15° | 59° | 10° | 50° | 72% | 1019 mb | 40 ft | |||
| 05-май | 07:00 | n/a | 290° | 2 kt | Missing | 13° | 55° | 12° | 53° | 94% | 1018 mb | -171 ft | |||
| 05-май | 06:00 | n/a | 270° | 3 kt | Missing | 15° | 59° | 15° | 59° | 100% | 1017 mb | 99 ft | |||
| 05-май | 05:00 | n/a | 300° | 4 kt | Missing | 16° | 60° | 15° | 59° | 94% | 1016 mb | 249 ft | |||
| 05-май | 04:00 | n/a | 300° | 5 kt | Missing | 17° | 62° | 16° | 60° | 94% | 1016 mb | 369 ft | |||
| 05-май | 03:00 | n/a | 330° | 4 kt | Missing | 17° | 62° | 16° | 60° | 94% | 1016 mb | 369 ft | |||
| 05-май | 02:00 | n/a | 340° | 6 kt | Missing | 17° | 62° | 16° | 60° | 94% | 1016 mb | 369 ft | |||
| 05-май | 01:00 | n/a | Calm | Missing | 17° | 62° | 16° | 60° | 94% | 1016 mb | 369 ft | ||||
| 05-май | 00:00 | n/a | 230° | 1 kt | Missing | 16° | 60° | 16° | 60° | 100% | 1016 mb | 249 ft | |||
| 04-май | 23:00 | n/a | 290° | 3 kt | Missing | 16° | 60° | 16° | 60° | 100% | 1016 mb | 249 ft | |||
| 04-май | 22:00 | n/a | 30° | 4 kt | Missing | 17° | 62° | 16° | 60° | 94% | 1016 mb | 369 ft | |||
| 04-май | 21:00 | n/a | 10° | 2 kt | Missing | 17° | 62° | 16° | 60° | 94% | 1016 mb | 369 ft | |||
| 04-май | 20:00 | n/a | 230° | 1 kt | Missing | 17° | 62° | 16° | 60° | 94% | 1016 mb | 369 ft | |||
| 04-май | 19:00 | n/a | 340° | 7 kt | Missing | 19° | 66° | 15° | 59° | 78% | 1016 mb | 609 ft | |||
| 04-май | 18:00 | n/a | 350° | 7 kt | Missing | 20° | 68° | 15° | 59° | 73% | 1015 mb | 758 ft | |||
| 04-май | 17:00 | n/a | 350° | 6 kt | Missing | 21° | 69° | 15° | 59° | 69% | 1015 mb | 878 ft | |||
| 04-май | 16:00 | n/a | 310° | 5 kt | Missing | 22° | 71° | 14° | 57° | 60% | 1015 mb | 998 ft |
Вход
| Ваш браузер не поддерживается.. обновите веб-браузер |
